Location: Newark
(25.3833°N, 97.4000°E)
Time: 11:04:25
(UTC+00:00)

ISS - Pass Details

Date: 13 December 2019
Orbit: 415 x 421 km, 51.6° (Epoch: 21 January)

Event Time Altitude Azimuth Distance (km) Brightness Sun altitude
Rises 11:49:19 0° 308° (NW) 2,363 0.5 -15.0°
Reaches altitude 10° 11:51:32 10° 299° (WNW) 1,498 -0.4 -15.5°
Maximum altitude 11:54:36 33° 232° (SW) 720 -1.9 -16.1°
Drops below altitude 10° 11:57:41 10° 166° (SSE) 1,495 -0.9 -16.8°
Enters shadow 12:02:19 -8° 152° (SSE) 3,341 0.7 -17.8°
